Regional Weather Roundup
Issued by NWS

Home | Current Version | Previous Version | Graphics & Text | Print | Product List | Glossary On
Versions: 1 2 3 4 5 6 7 8 9 10 11 12 13 14 15 16 17 18 19 20 21 22 23 24 25 26 27 28 29 30 31 32 33 34 35 36 37 38 39 40 41 42 43 44 45 46 47 48 49 50
000
ASUS43 KLOT 272312
RWRIL

ILLINOIS REGIONAL WEATHER ROUNDUP
NATIONAL WEATHER SERVICE CHICAGO/ROMEOVILLE IL
500 PM CST MON FEB 27 2017

NOTE: "FAIR" INDICATES FEW OR NO CLOUDS BELOW 12,000 FEET WITH NO
SIGNIFICANT WEATHER AND/OR OBSTRUCTIONS TO VISIBILITY.

* THESE STATIONS ARE NOT UNDER NWS QUALITY CONTROL. THEY ALSO MAY NOT
  REPORT WEATHER SUCH AS PRECIPITATION OR FOG.

ILZ001-002-007-009-015-016-024-280000-
NORTHWEST ILLINOIS

CITY           SKY/WX    TMP DP  RH WIND       PRES   REMARKS
MOLINE         CLOUDY    54  31  41 S9        29.98F
STERLING*      PTCLDY    53  33  46 VRB3      30.03S
$$

ILZ003-004-008-010-011-017-018-280000-
NORTH CENTRAL ILLINOIS

CITY           SKY/WX    TMP DP  RH WIND       PRES   REMARKS
ROCKFORD       CLOUDY    50  33  52 S9        30.06S
FREEPORT*      CLOUDY    47  35  63 S8        30.04R
ROCHELLE*      CLOUDY    50  36  59 S6        30.04S
DE KALB*       CLOUDY    49  34  56 S6        30.04F
PERU*          PTCLDY    53  32  45 S8        30.04S
$$

ILZ005-006-012>014-019>023-280000-
NORTHEAST ILLINOIS

CITY           SKY/WX    TMP DP  RH WIND       PRES   REMARKS
CHICAGO-OHARE  CLOUDY    51  32  48 S6        30.06F
CHICAGO-MIDWAY MOCLDY    54  31  41 S6        30.07S
AURORA         PTCLDY    52  34  50 S7        30.04F
LANSING*       MOCLDY    51  37  57 S3        30.09R
JOLIET*        CLEAR     54  34  45 S5        30.06F
WAUKEGAN       MOCLDY    41  34  76 SE6       30.07F
DUPAGE AIRPORT PTCLDY    51  31  46 SE7       30.04F
KANKAKEE*      MOCLDY    54  35  48 SE10      30.08R
WHEELING       CLOUDY    50  31  48 S7        30.08S
MORRIS*        CLEAR     53  33  47 S7        30.04F
ROMEOVILLE*    MOCLDY    51  37  59 SE5       30.06F
NORTHERLY ISL    N/A     40  34  79 CALM        N/A
$$

LMZ740>746-280000-
SOUTHERN LAKE MICHIGAN

STATION/POSITION SKY/WX   TEMP    WIND        PRES    VSBY  WAVE
                          AIR SEA DIR/SP/G                  HT/PER
                          (F)     (DEG/KT/KT) (MB)    (MI)  (FT/S)
HARRISON CRIB              41     100/ 11/ 12   N/A
BURNHAM HARBOR             40      70/  2/  5   N/A
CALUMET HARBOR             40      60/  8/ 10 1018.2R
BURNS HARBOR               52     180/  8/ 15 1019.6S
MICHIGAN CITY              51     130/ 13/ 15   N/A
$$

ILZ025>027-034>036-040-047-049-050-058-095>099-280000-
WEST-CENTRAL ILLINOIS

CITY           SKY/WX    TMP DP  RH WIND       PRES   REMARKS
QUINCY         CLEAR     59  29  31 SE12      29.95F
GALESBURG*     CLOUDY    54  31  41 SE7       29.99S
MACOMB*        CLOUDY    57  29  33 SE10      30.00F
JACKSONVILLE*  CLEAR     59  32  36 S12       30.00F
PITTSFIELD*    CLEAR     59  35  39 SE13      29.98F
$$

ILZ028>032-037-038-041>044-048-051>054-059>061-280000-
CENTRAL ILLINOIS

CITY           SKY/WX    TMP DP  RH WIND       PRES   REMARKS
PONTIAC        PTCLDY    55  35  47 S9        30.05S
BLOOMINGTON    PTCLDY    53  35  50 S12       30.05R
DECATUR        PTCLDY    57  35  43 S9        30.05R
PEORIA         PTCLDY    56  33  42 S8        30.02S
LACON*         CLOUDY    55  33  44 S9        30.02S
LINCOLN*       CLEAR     58  37  44 S8        30.02S
SPRINGFIELD    CLEAR     61  34  36 S10       30.02F
TAYLORVILLE    CLEAR     58  38  46 S12       30.03F
$$

ILZ033-039-045-046-055>057-062-063-280000-
EAST-CENTRAL ILLINOIS

CITY           SKY/WX    TMP DP  RH WIND       PRES   REMARKS
CHAMPAIGN      PTCLDY    57  36  45 S13       30.06S
RANTOUL*       PTCLDY    57  38  49 S9        30.06S
MATTOON        CLEAR     54  42  64 SE12      30.07R
PARIS*         CLEAR     53  42  67 SE15      30.10S
$$

ILZ079-100>102-280000-
SOUTHWEST ILLINOIS

CITY           SKY/WX    TMP DP  RH WIND       PRES   REMARKS
ALTON          MOCLDY    59  39  47 SE8       30.01F
BELLEVILLE     MOCLDY    61  44  52 E12G18    30.00F
CAHOKIA*       MOCLDY    64  39  39 SE14      29.99F
SPARTA*        CLEAR     60  45  56 SE10G16   30.04S
$$

ILZ064>066-069>071-074>076-080>082-084>086-088>090-092>094-280000-
SOUTH-CENTRAL ILLINOIS

CITY           SKY/WX    TMP DP  RH WIND       PRES   REMARKS
CARBONDALE     CLEAR     60  47  61 S14       30.05S
CAIRO*         PTCLDY    63  48  58 S12       30.07S
EFFINGHAM*     PTCLDY    57  45  64 SE12      30.08F
MT. VERNON     CLEAR     58  45  62 SE8       30.06F
CENTRALIA*     CLEAR     61  47  59 SE10      30.05R
SALEM*         CLEAR     61  42  51 SE6G16    30.05S
METROPOLIS*    CLEAR     64  47  54 CALM      30.07F
$$

ILZ067-068-072-073-078-083-087-091-280000-
SOUTHEAST ILLINOIS

CITY           SKY/WX    TMP DP  RH WIND       PRES   REMARKS
LAWRENCEVILLE  MOCLDY    55  45  68 SE10      30.11F
FLORA*         PTCLDY    58  46  62 SE13      30.08F
FAIRFIELD*     PTCLDY    57  46  64 S3        30.07F
HARRISBURG*    CLEAR     62  47  59 S8        30.08S
ROBINSON*      PTCLDY    53  44  70 SE9       30.12S
CARMI*         CLEAR     58  47  64 SE7       30.08F
$$

ABBREVIATIONS USED IN REMARKS
   TC - TEMPERATURE IN CELSIUS
  WCI - WIND CHILL INDEX
   HX - HEAT INDEX
  VSB - VISIBILITY
$$





USA.gov is the U.S. government's official web portal to all federal, state and local government web resources and services.